This demonstration page uses our WeatherBlox Daily Observations layout. Learn more.

Left ArrowRight Arrow

Hourly Observations for July 3, 2022

Temp ( °F °C ) Dew Point ( °F °C ) Humidity (%) Winds ( mph kmh ) Pressure ( in mb ) Visibility ( mi km ) Precip ( " mm )
12:54 am 00:54 Clear 72 22.2 66 18.9 82 82 S 3 6 30.01 1016 10 16 0.00 0.00
1:54 am 01:54 Clear 70 21.1 67 19.4 90 90 SSE 7 11 30.01 1016 10 16 0.00 0.00
2:54 am 02:54 Clear 69 20.6 66 18.9 90 90 S 7 11 30.01 1016 10 16 0.00 0.00
3:54 am 03:54 Clear 67 19.4 65 18.3 93 93 SSE 3 6 30.02 1017 7 11 0.00 0.00
4:02 am 04:02 Mostly Clear 68 20 66 18.9 93 93 Calm 30.02 1016 8 13 0.00 0.00
4:39 am 04:39 Mostly Cloudy 68 20 66 18.9 93 93 S 5 7 30.02 1016 7 11 0.00 0.00
4:54 am 04:54 Cloudy 68 20 67 19.4 96 96 S 6 9 30.03 1017 7 11 0.00 0.00
5:12 am 05:12 Cloudy with Mist and Fog 68 20 67 19.4 96 96 S 9 15 30.03 1017 5 8 0.00 0.00
5:54 am 05:54 Cloudy with Mist and Fog 69 20.6 67 19.4 93 93 SSE 5 7 30.01 1016 3 5 0.00 0.00
6:54 am 06:54 Cloudy with Mist and Fog 69 20.6 67 19.4 93 93 SSE 7 11 30.01 1016 4 6 0.00 0.00
7:54 am 07:54 Cloudy with Mist and Fog 70 21.1 68 20 93 93 SSE 10 17 30.02 1017 4 6 0.00 0.00
8:54 am 08:54 Cloudy with Mist and Fog 71 21.7 68 20 90 90 SSE 8 13 30.03 1017 5 8 0.00 0.00
9:46 am 09:46 Cloudy 72 22.2 68 20 87 87 SE 8 13 30.02 1017 8 13 0.00 0.00
9:54 am 09:54 Cloudy 72 22.2 69 20.6 91 91 SSE 7 11 30.03 1017 9 14 0.00 0.00
10:54 am 10:54 Cloudy 74 23.3 69 20.6 85 85 S 8 13 30.02 1017 10 16 0.00 0.00
11:17 am 11:17 Cloudy 75 23.9 69 20.6 82 82 VRB 6 9 30.00 1016 10 16 0.00 0.00
11:54 am 11:54 Cloudy 77 25 70 21.1 79 79 S 8 13 30.01 1016 10 16 0.00 0.00
12:29 pm 12:29 Cloudy 78 25.6 70 21.1 76 76 S 10 17 29.98 1015 10 16 0.00 0.00
12:54 pm 12:54 Cloudy 80 26.7 70 21.1 71 71 SSE 8 13 30.00 1016 10 16 0.00 0.00
1:24 pm 13:24 Cloudy 81 27.2 70 21.1 69 69 SSE 8 13 29.96 1014 10 16 0.00 0.00
1:54 pm 13:54 Partly Cloudy 83 28.3 71 21.7 67 67 SSE 8 13 29.98 1015 10 16 0.00 0.00
2:10 pm 14:10 Mostly Cloudy 83 28.3 71 21.7 67 67 SSW 13 20 29.94 1014 10 16 0.00 0.00
2:36 pm 14:36 Partly Cloudy 83 28.3 72 22.2 70 70 SSE 10 17 29.94 1014 10 16 0.00 0.00
2:54 pm 14:54 Partly Cloudy 84 28.9 72 22.2 67 67 SSE 9 15 29.97 1015 10 16 0.00 0.00
3:03 pm 15:03 Mostly Cloudy 84 28.9 72 22.2 67 67 S 12 19 29.94 1014 10 16 0.00 0.00
3:54 pm 15:54 Mostly Cloudy 85 29.4 72 22.2 65 65 SE 14 22 29.96 1015 10 16 0.00 0.00
4:54 pm 16:54 Cloudy 85 29.4 72 22.2 65 65 SSE 15 24 29.94 1014 10 16 0.00 0.00
5:54 pm 17:54 Mostly Cloudy 87 30.6 74 23.3 65 65 SE 13 20 29.92 1013 10 16 0.00 0.00
6:26 pm 18:26 Mostly Cloudy 87 30.6 73 22.8 63 63 SSE 13 20 29.87 1012 10 16 0.00 0.00
6:54 pm 18:54 Partly Cloudy 86 30 73 22.8 65 65 S 15 24 29.91 1013 10 16 0.00 0.00
7:54 pm 19:54 Mostly Sunny 84 28.9 72 22.2 67 67 SSE 14 22 29.91 1013 10 16 0.00 0.00
8:54 pm 20:54 Mostly Cloudy 83 28.3 73 22.8 72 72 SE 12 19 29.91 1013 10 16 0.00 0.00
9:54 pm 21:54 Mostly Clear 82 27.8 74 23.3 77 77 SE 14 22 29.92 1013 9 14 0.00 0.00
10:54 pm 22:54 Hazy 82 27.8 74 23.3 77 77 SE 15 24 29.91 1013 5 8 0.00 0.00
11:54 pm 23:54 Clear 82 27.8 74 23.3 77 77 SSE 17 28 29.88 1012 10 16 0.00 0.00

Powered by AerisWeather